Weather in Kalachigi

Russia / Kirov Oblast     58°01′57″N   49°36′27″E
В апреле 2022 года жителям России запретили посещать сайт meteo.paraplan.net по решению Генеральной прокуратуры. Аудитория сайта уменьшилась в 10 раз. Владельцы сайта не видят смысла в поддержке погодного сервера в таких условиях. Сайт будет закрыт в октябре.
temp.,
°C
wind,
m/s
gust,
m/s
humid.,
%
clouds,
%
prec.,
mm/h
press.,
hPa
HPBL,
m
30 september, fri
fri3000:00+2ese4998100 0.3 1020374
03:00+2se3899100 0.3 1021318
06:00+3se3698100 0.1 1023261
09:00+4se3697100 0.1 1024255
12:00+6sse4593100 0.0 1025376
15:00+7se469399 0.0 1025395
18:00+6se489690 0.0 1026411
21:00+5sse399899 0.0 1026306
1 october, sat
sat100:00+5sse41097100 0.0 1025316
03:00+5sse5119581 0.0 1025317
06:00+4sse5119881 0.0 1025271
09:00+7sse61088100 0.0 1024348
12:00+11s6877100 0.0 1022530
15:00+12sse5978100 0.0 1021613
18:00+10sse61283100 0.0 1020532
21:00+9sse51389100 0.2 1019443
2 october, sun
sun200:00+9sse51491100 1.3 1017445
03:00+9sse61489100 3.8 1015417
06:00+10sse61690100 0.3 1013485
09:00+12sse71784100 0.3 1012544
12:00+15s81579100 0.4 1010911
15:00+14s61391100 1.8 10091049
18:00+14ssw61287100 0.6 1009834
21:00+12sw4993100 0.8 1010469
3 october, mon
mon300:00+10ssw279899 0.1 1011190
03:00+9ssw2497100 0.1 101294
06:00+10s229638 0.0 101229
09:00+13sse3796100 0.0 1012353
12:00+16s61084100 0.3 1013784
15:00+17sse61280100 0.4 1013722
18:00+15s71576100 0.0 1014600
21:00+13s61772100 0.0 1015626
4 october, tue
tue400:00+13s6166696 0.0 1016671
03:00+12s61662100 0.0 1017584
06:00+11sse71557100 0.0 1019577
09:00+12sse71551100 0.0 1020704
12:00+14s71446100 0.0 1020901
15:00+14s7134591 0.0 10211070
18:00+12s71548100 0.0 10231157
21:00+10s61264100 0.6 10241007